Location: Lourdes
(43.1000°N, 0.0500°W)
Time: 09:57:55
(UTC+00:00)

Envisat - Pass Details

Date: 30 November 2020
Orbit: 764 x 766 km, 98.1° (Epoch: 26 January)

Event Time Altitude Azimuth Distance (km) Brightness Sun altitude
Rises 17:11:00 0° 172° (S) 3,217 6.4 -8.1°
Reaches altitude 10° 17:13:19 10° 174° (S) 2,296 5.7 -8.5°
Maximum altitude 17:18:21 70° 258° (WSW) 818 3.4 -9.4°
Drops below altitude 10° 17:23:27 10° 342° (NNW) 2,313 5.5 -10.2°
Sets 17:25:47 0° 345° (NNW) 3,244 6.2 -10.6°
